Wetbulb
65.47 66.75 67.46 67.43 67.88 67.51 66.73 67.76 68.89 69.55 69.43 68.54 68.28 68.75 68.78 69.99 70.60 71.64 72.55 72.18 72.30 73.16 72.47 71.49 69.37 72.25 71.95 71.08 73.42 72.62 71.47 71.18 70.51 70.59 69.23 68.63 69.52 70.22 71.32 71.05 71.26 72.14 72.94
64.08 65.81 66.72 67.40 67.18 66.83 66.54 67.80 68.86 68.81 69.20 69.06 68.70 69.70 69.89 70.88 71.16 72.09 72.92 72.72 72.79 73.27 72.40 71.43 71.03 71.98 70.08 71.55 73.17 73.00 71.48 71.19 71.09 70.51 66.61 65.41 67.20 68.79 69.67 71.28 71.26 71.42 72.13
63.30 65.02 65.92 66.19 66.84 66.65 66.32 67.35 68.57 68.39 69.49 70.05 69.86 70.10 70.66 70.64 70.50 71.50 71.85 72.42 73.15 73.26 73.05 72.22 71.85 71.34 68.93 70.32 72.32 73.62 72.29 71.06 70.44 70.36 69.67 66.71 65.19 66.45 69.87 69.95 70.50 70.56 71.79
64.55 65.70 65.81 65.78 66.29 66.83 67.66 67.63 68.65 68.15 69.63 70.26 69.59 69.33 68.51 67.92 69.25 70.59 71.20 71.94 71.85 72.94 72.52 72.35 71.02 69.70 67.25 71.43 72.65 73.40 73.28 71.71 70.67 70.61 68.85 69.03 70.09 66.78 65.71 69.12 69.02 70.02 70.36
64.02 65.16 65.74 66.39 66.81 67.32 67.88 67.87 68.50 68.78 70.03 69.63 69.75 68.87 68.38 68.87 70.18 70.36 70.58 71.09 70.98 72.78 73.70 72.00 71.86 69.79 71.49 72.12 73.35 73.53 73.76 73.22 70.54 70.28 69.70 68.67 68.21 67.93 67.77 65.94 66.90 68.35 69.77
63.80 65.75 66.98 66.79 66.63 68.01 68.61 68.21 68.54 69.05 69.59 69.46 69.35 69.13 68.46 68.43 69.23 69.47 69.46 70.27 70.78 71.64 72.81 72.78 71.05 72.12 71.79 71.30 72.35 73.60 73.43 73.23 71.24 68.95 68.66 68.70 68.46 68.06 68.12 67.10 65.78 66.16 69.25
63.30 64.79 65.55 64.79 65.81 67.37 68.30 68.24 68.48 68.67 69.48 68.95 69.26 69.16 69.18 69.24 69.53 69.52 69.68 69.86 70.33 70.84 71.59 72.86 72.68 72.07 72.02 70.71 69.54 72.63 72.60 72.86 73.03 71.93 70.45 68.72 67.31 67.96 69.23 69.12 67.72 66.00 66.99
63.61 64.69 65.25 64.63 66.10 67.20 68.35 68.63 68.09 68.36 69.57 69.44 69.18 69.74 69.87 69.50 69.66 69.98 70.05 70.23 70.55 71.01 71.76 71.62 73.17 72.57 71.74 69.46 70.53 72.33 72.09 72.63 72.15 71.45 72.38 72.15 69.88 68.89 70.63 69.61 68.20 67.77 67.80
63.47 64.28 64.67 65.01 66.06 67.06 67.99 68.57 68.31 68.14 69.12 69.53 69.45 69.63 70.32 70.09 69.87 70.30 70.42 70.23 71.19 71.13 71.29 71.98 72.70 72.57 72.98 72.68 72.74 72.32 71.76 71.94 71.23 70.48 71.02 72.60 72.63 69.57 69.73 70.18 69.89 69.77 67.24
63.73 64.22 64.91 65.04 65.63 67.39 68.19 68.89 68.88 68.16 69.11 69.51 69.32 69.50 69.92 70.80 70.66 71.11 70.84 70.94 70.62 71.01 70.81 71.31 71.41 71.54 71.44 72.51 72.94 72.95 72.54 71.64 70.94 69.10 70.77 71.97 72.30 72.18 71.49 70.97 69.76 70.19 69.14
64.36 64.40 65.09 65.68 66.05 67.02 67.96 68.25 68.49 68.19 68.70 69.87 69.55 69.82 69.95 70.39 70.91 70.91 70.70 70.76 71.35 71.44 70.93 70.45 70.96 69.97 70.27 71.76 72.12 72.20 72.40 71.77 71.59 71.77 71.30 71.94 71.86 71.20 71.65 71.66 71.15 70.10 69.28
64.14 65.03 64.88 66.05 66.10 67.28 67.91 67.96 68.52 68.65 69.40 70.40 70.25 70.20 70.63 70.99 70.81 70.69 70.81 70.42 69.93 69.83 69.94 70.64 70.05 69.19 70.33 72.64 72.54 71.87 72.75 72.01 71.43 71.37 71.41 71.32 71.77 71.90 71.53 71.18 71.71 71.07 70.56
63.91 64.98 65.51 65.79 66.58 67.24 68.54 68.69 69.01 69.34 70.36 70.36 70.53 70.31 70.33 70.51 70.65 70.59 70.65 70.34 69.78 69.86 69.24 68.20 68.51 69.83 72.50 72.68 72.63 72.24 71.73 72.71 72.51 72.68 71.90 71.92 71.92 71.69 71.91 71.17 70.79 70.00 70.69
63.92 64.89 65.51 66.20 66.51 67.03 67.86 68.22 68.35 69.49 69.99 70.19 69.97 69.75 69.57 70.19 69.94 70.08 69.88 69.94 69.68 69.84 70.50 70.73 71.43 71.82 71.34 71.10 70.75 70.59 71.10 71.23 72.09 72.76 72.62 72.66 72.72 72.31 71.77 71.14 71.18 70.94 70.86
63.37 63.92 64.52 65.23 65.93 65.81 66.40 67.18 67.54 68.29 69.23 69.28 69.97 69.41 70.13 70.52 70.24 69.77 69.71 70.40 70.33 69.97 69.50 69.91 69.93 68.75 68.52 66.56 66.02 67.68 68.25 69.22 70.85 71.75 72.75 72.06 70.15 68.01 68.28 71.65 71.24 71.00 70.77
62.99 64.12 64.65 65.13 64.96 66.00 66.11 67.02 67.84 68.42 69.18 69.59 68.22 68.98 69.92 69.25 69.64 69.48 69.32 69.57 69.32 69.10 69.55 68.31 67.12 66.71 65.31 59.15 59.83 61.78 65.13 67.58 69.70 70.94 71.64 68.80 66.93 66.06 64.12 65.40 65.58 67.48 70.17
63.28 63.68 64.08 64.60 65.23 65.99 66.67 66.26 67.50 68.65 68.51 68.11 68.35 68.24 68.74 68.85 68.94 68.65 68.31 68.26 68.24 68.47 68.22 65.82 62.32 59.19 57.68 57.64 58.51 60.91 62.93 66.92 69.07 70.27 68.99 65.69 62.60 62.29 65.20 64.11 63.25 62.88 62.72
62.92 62.56 63.22 63.99 63.33 64.42 66.93 67.72 68.15 67.74 67.13 66.97 67.49 68.17 68.20 67.77 67.61 67.99 68.40 67.99 68.06 66.52 63.21 58.47 56.00 56.18 57.15 56.29 59.34 63.27 66.77 66.78 63.89 64.06 64.02 60.82 59.55 60.07 59.74 67.08 65.85 61.61 61.79
60.40 60.83 60.92 61.23 61.77 62.63 64.87 66.00 67.06 67.24 67.42 66.50 66.79 67.72 67.74 67.68 67.95 67.92 67.45 66.75 65.48 61.47 58.79 57.03 55.63 55.38 54.24 53.64 58.29 63.48 63.26 60.51 58.74 58.15 58.91 57.64 54.85 53.79 55.44 61.01 62.50 59.69 59.79
58.67 58.71 59.81 60.30 60.00 61.21 63.88 65.80 65.43 66.11 66.27 66.18 66.21 67.70 68.17 67.70 66.14 65.89 66.09 66.75 63.76 60.58 57.08 54.62 53.68 52.01 52.79 52.30 53.22 59.95 59.44 56.85 57.15 58.06 57.07 54.44 53.85 52.61 52.80 56.83 58.12 58.45 57.93
57.16 57.39 57.08 56.49 57.75 60.36 60.98 60.62 59.86 59.60 62.22 62.56 63.08 63.60 64.69 65.21 65.12 64.85 65.75 65.75 61.93 59.12 57.15 54.56 52.21 51.82 51.59 51.55 51.31 51.96 58.03 59.66 59.29 57.34 56.26 53.62 51.57 50.97 49.86 52.30 58.23 57.55 58.00
56.72 56.77 55.84 55.85 57.23 59.53 57.97 56.61 56.27 59.08 60.81 61.56 60.18 59.64 60.30 61.59 62.77 62.76 63.52 64.51 62.26 59.06 58.29 53.21 50.98 50.28 50.13 49.85 49.97 49.85 51.34 53.11 55.26 54.62 52.97 51.20 49.81 50.35 50.28 53.72 52.02 51.72 53.59
55.31 55.95 55.13 54.24 54.24 56.19 56.64 55.27 55.77 56.49 57.61 57.71 57.27 58.45 57.75 58.53 58.71 58.40 59.92 61.90 61.11 59.03 55.95 54.10 52.45 50.79 50.56 48.79 47.64 47.74 48.29 49.62 50.96 50.12 50.32 49.77 49.45 49.78 51.37 51.77 51.39 51.25 51.79
54.56 54.73 54.54 53.58 52.27 52.31 52.36 52.54 52.59 53.37 52.72 52.46 54.21 54.86 55.27 53.39 52.89 53.58 53.46 56.99 56.79 58.60 59.00 58.07 55.67 52.15 51.73 51.14 48.79 47.42 47.62 48.22 49.28 51.30 53.78 52.44 51.69 50.78 50.76 51.14 51.12 50.85 50.82
53.41 52.80 51.87 51.48 51.13 51.85 51.88 52.15 51.48 51.25 49.66 49.94 50.19 49.74 48.12 47.83 46.14 43.46 45.04 46.73 43.90 47.18 51.47 51.21 54.79 53.76 52.74 51.60 45.58 44.11 45.24 45.42 44.62 49.81 51.72 50.99 49.90 49.34 49.01 49.00 49.34 48.72 48.30
53.31 53.01 53.15 52.72 51.24 51.20 51.04 51.26 51.42 51.28 49.89 49.34 50.00 49.91 48.21 46.33 46.07 45.72 44.42 42.72 42.09 41.13 40.20 41.01 46.98 47.26 44.46 41.41 40.08 39.32 39.65 40.32 41.79 50.51 50.26 48.64 49.09 48.38 47.68 47.77 46.55 46.75 45.62
MSLP
1015.13 1015.64 1016.18 1016.60 1017.07 1017.53 1017.97 1018.27 1018.53 1018.69 1018.95 1019.45 1019.67 1019.82 1019.97 1020.28 1020.42 1020.43 1020.60 1020.68 1020.80 1020.66 1020.64 1020.78 1020.80 1020.67 1020.59 1020.62 1020.47 1020.59 1020.73 1020.59 1020.51 1020.44 1020.73 1020.89 1020.85 1020.72 1020.65 1020.62 1020.62 1020.41 1020.17
1015.24 1015.62 1015.97 1016.53 1016.88 1017.41 1018.00 1018.38 1018.38 1018.69 1018.62 1018.93 1019.10 1019.22 1019.65 1020.04 1020.19 1020.28 1020.39 1020.48 1020.72 1020.64 1020.65 1020.87 1020.87 1020.81 1020.82 1020.85 1020.73 1020.63 1020.86 1020.87 1020.81 1020.88 1021.29 1021.52 1021.43 1020.79 1020.76 1020.74 1020.59 1020.35 1020.13
1014.84 1015.34 1015.78 1016.24 1016.84 1017.22 1017.75 1018.23 1018.32 1018.43 1018.57 1018.72 1019.11 1019.40 1019.61 1020.07 1020.48 1020.52 1020.43 1020.32 1020.58 1020.64 1020.75 1020.89 1020.86 1020.91 1021.07 1020.97 1020.81 1020.70 1020.71 1020.97 1021.06 1020.99 1021.29 1021.86 1021.79 1021.58 1021.08 1020.95 1020.88 1020.55 1020.32
1014.34 1014.75 1015.45 1015.95 1016.42 1016.78 1017.40 1018.01 1018.25 1018.49 1018.66 1018.77 1018.95 1019.22 1019.53 1020.08 1020.14 1020.14 1020.31 1020.32 1020.43 1020.54 1020.79 1020.76 1020.85 1021.11 1021.10 1020.93 1020.89 1020.63 1020.68 1020.78 1021.08 1021.19 1021.36 1021.55 1021.54 1021.69 1021.71 1021.23 1021.03 1020.83 1020.43
1013.67 1014.18 1014.56 1015.11 1015.85 1016.58 1016.95 1017.57 1018.10 1018.38 1018.67 1018.88 1018.84 1019.18 1019.59 1019.72 1019.88 1020.13 1020.39 1020.39 1020.39 1020.27 1020.43 1020.71 1020.99 1021.15 1020.93 1020.83 1020.85 1020.71 1020.62 1020.80 1021.17 1021.35 1021.57 1021.61 1021.75 1021.77 1021.83 1021.69 1021.44 1020.85 1020.39
1013.12 1013.46 1013.92 1015.08 1015.87 1016.49 1016.90 1017.38 1017.85 1018.23 1018.47 1018.85 1019.04 1019.11 1019.41 1019.74 1019.99 1020.17 1020.35 1020.47 1020.50 1020.40 1020.31 1020.45 1020.77 1020.76 1020.82 1020.81 1020.75 1020.70 1020.81 1021.00 1021.23 1021.47 1021.52 1021.59 1021.69 1021.85 1021.82 1021.97 1021.97 1021.64 1020.80
1012.73 1013.51 1014.07 1015.03 1015.73 1016.13 1016.67 1017.18 1017.71 1018.09 1018.43 1018.74 1019.03 1019.17 1019.22 1019.50 1019.75 1019.96 1020.17 1020.37 1020.47 1020.46 1020.33 1020.23 1020.37 1020.62 1020.59 1020.79 1020.93 1020.87 1020.88 1020.99 1021.29 1021.43 1021.45 1021.53 1021.60 1021.70 1021.74 1021.81 1022.00 1021.99 1021.37
1012.17 1013.01 1013.41 1014.43 1015.09 1015.54 1016.25 1016.93 1017.48 1017.83 1018.15 1018.49 1018.80 1019.13 1019.31 1019.51 1019.65 1019.77 1019.91 1020.02 1020.15 1020.19 1020.04 1020.10 1020.15 1020.27 1020.48 1020.71 1020.77 1020.79 1020.85 1020.87 1021.18 1021.22 1021.17 1021.20 1021.33 1021.42 1021.51 1021.53 1021.70 1021.87 1021.69
1011.85 1012.56 1013.19 1014.08 1014.79 1015.21 1015.72 1016.25 1016.89 1017.51 1017.82 1018.21 1018.71 1019.07 1019.25 1019.45 1019.58 1019.70 1019.84 1019.89 1019.95 1019.95 1019.93 1019.94 1020.02 1020.15 1020.29 1020.45 1020.67 1020.87 1020.82 1020.91 1021.09 1021.15 1021.10 1021.15 1021.12 1021.17 1021.24 1021.38 1021.39 1021.47 1021.68
1011.71 1012.11 1012.80 1013.71 1014.39 1014.92 1015.13 1015.81 1016.32 1016.75 1017.21 1017.76 1018.23 1018.63 1018.95 1019.11 1019.32 1019.49 1019.59 1019.74 1019.67 1019.65 1020.06 1020.08 1020.04 1020.14 1020.17 1020.28 1020.44 1020.71 1020.73 1020.92 1021.03 1021.05 1021.03 1021.07 1021.05 1021.02 1021.07 1021.21 1021.35 1021.30 1021.37
1010.80 1011.55 1012.23 1013.15 1013.79 1014.58 1015.09 1015.39 1016.02 1016.46 1017.00 1017.41 1017.83 1018.24 1018.60 1018.93 1019.12 1019.30 1019.37 1019.44 1019.53 1019.50 1019.74 1020.02 1020.11 1020.25 1020.32 1020.19 1020.34 1020.57 1020.70 1020.87 1021.01 1021.01 1021.01 1020.92 1020.86 1020.82 1020.83 1020.86 1021.02 1021.09 1021.02
1010.21 1010.96 1011.95 1013.07 1013.87 1014.34 1014.90 1015.26 1015.65 1016.13 1016.41 1017.01 1017.56 1017.87 1018.21 1018.59 1018.91 1019.11 1019.53 1019.63 1019.55 1019.43 1019.50 1019.65 1019.95 1020.20 1020.35 1020.23 1020.27 1020.37 1020.44 1020.64 1020.75 1020.74 1020.87 1020.75 1020.68 1020.66 1020.59 1020.65 1020.69 1020.65 1020.70
1010.33 1011.05 1012.20 1012.80 1013.47 1014.21 1014.60 1015.06 1015.36 1015.71 1016.08 1016.57 1017.23 1017.79 1018.00 1018.23 1018.54 1018.83 1019.24 1019.55 1019.74 1019.71 1019.57 1019.66 1019.71 1019.80 1019.91 1019.99 1020.09 1020.18 1020.29 1020.30 1020.33 1020.39 1020.48 1020.47 1020.45 1020.40 1020.49 1020.52 1020.43 1020.35 1020.26
1010.95 1011.63 1012.17 1012.66 1013.28 1014.04 1014.54 1014.86 1015.24 1015.37 1015.77 1016.20 1016.67 1017.31 1017.72 1017.98 1018.19 1018.36 1018.88 1019.40 1019.73 1019.87 1019.71 1019.71 1019.73 1019.81 1019.91 1019.97 1020.08 1020.15 1020.20 1020.16 1020.07 1020.07 1020.19 1020.21 1020.16 1020.02 1020.15 1020.34 1020.35 1020.25 1020.15
1011.19 1011.73 1012.27 1012.75 1013.35 1014.02 1014.34 1014.71 1015.23 1015.50 1015.65 1015.97 1016.29 1016.69 1017.27 1017.56 1017.95 1018.12 1018.77 1019.19 1019.73 1019.89 1019.83 1019.77 1019.80 1019.79 1019.97 1020.03 1020.07 1020.15 1020.18 1020.08 1019.86 1019.75 1019.88 1020.08 1020.15 1019.99 1019.98 1020.17 1020.19 1020.18 1020.09
1011.53 1012.14 1012.78 1012.95 1013.47 1013.67 1014.18 1014.76 1015.22 1015.17 1015.70 1016.01 1016.10 1016.53 1016.82 1017.15 1017.85 1018.14 1018.56 1019.04 1019.32 1019.63 1019.64 1019.76 1019.81 1020.14 1020.25 1020.16 1020.07 1020.05 1020.11 1019.99 1019.89 1019.91 1019.99 1020.26 1020.39 1020.57 1020.05 1019.87 1019.91 1019.94 1019.79
1012.29 1012.62 1013.09 1013.10 1013.43 1013.84 1014.26 1014.71 1015.01 1015.16 1015.55 1015.91 1016.16 1016.39 1016.88 1017.21 1017.49 1018.02 1018.45 1018.95 1019.11 1019.41 1019.67 1019.58 1019.73 1020.17 1020.33 1020.18 1019.93 1019.95 1019.87 1019.91 1019.88 1019.89 1020.27 1020.42 1020.76 1020.68 1020.96 1020.37 1020.16 1020.07 1020.22
1013.08 1013.37 1013.54 1013.83 1014.19 1014.45 1014.25 1014.44 1014.81 1015.18 1015.69 1015.76 1015.91 1016.19 1016.52 1016.87 1017.33 1018.02 1018.32 1018.62 1018.86 1019.16 1019.81 1020.17 1020.08 1020.31 1020.41 1020.26 1019.83 1019.83 1020.05 1019.97 1020.18 1020.20 1019.91 1020.39 1020.69 1021.17 1021.18 1020.84 1020.43 1020.25 1020.31
1013.91 1014.25 1014.37 1014.55 1014.62 1014.60 1014.46 1014.61 1015.00 1015.43 1015.55 1015.63 1015.88 1016.13 1016.34 1016.74 1017.18 1017.58 1017.98 1018.27 1018.64 1019.24 1019.92 1020.18 1020.33 1020.63 1020.56 1020.19 1020.08 1019.96 1019.98 1020.33 1020.28 1020.58 1020.61 1020.67 1020.83 1021.14 1021.15 1020.94 1020.82 1020.73 1020.81
1014.65 1014.77 1015.02 1015.11 1014.90 1014.94 1014.83 1014.71 1014.69 1015.50 1015.63 1015.88 1016.15 1016.16 1016.31 1016.48 1017.09 1017.70 1018.13 1018.34 1018.50 1019.23 1019.85 1020.39 1020.72 1020.69 1020.85 1020.61 1020.42 1020.17 1020.23 1020.65 1021.00 1021.21 1021.15 1021.23 1021.37 1021.22 1021.22 1021.03 1020.96 1021.09 1021.27
1014.95 1015.19 1015.45 1015.69 1015.71 1015.37 1015.34 1015.55 1015.71 1016.10 1015.92 1016.19 1016.39 1016.89 1016.58 1016.67 1017.25 1017.67 1018.04 1018.33 1018.79 1019.50 1020.06 1020.47 1020.87 1020.91 1021.11 1021.01 1020.81 1020.71 1020.78 1020.94 1021.05 1021.06 1021.36 1021.54 1021.54 1021.33 1021.22 1020.94 1021.07 1021.42 1021.50
1015.52 1015.55 1015.88 1016.24 1016.40 1016.11 1016.04 1016.31 1016.37 1016.60 1016.52 1016.70 1016.67 1016.78 1017.79 1016.65 1017.30 1017.91 1018.21 1018.58 1018.85 1019.59 1020.18 1020.64 1021.10 1021.26 1021.30 1021.27 1021.27 1021.23 1021.40 1021.32 1021.24 1021.41 1021.50 1021.58 1021.69 1021.29 1021.44 1021.35 1021.49 1021.52 1021.91
1016.27 1015.83 1016.09 1016.73 1017.09 1016.98 1016.92 1016.93 1017.43 1017.46 1017.40 1017.45 1017.66 1018.15 1018.06 1018.17 1018.46 1018.77 1018.88 1018.97 1019.51 1020.09 1020.48 1020.80 1021.13 1021.27 1021.53 1021.73 1021.73 1021.60 1021.52 1021.27 1021.27 1021.32 1021.64 1021.91 1021.51 1021.69 1021.67 1021.95 1021.97 1021.87 1022.29
1016.83 1016.53 1016.77 1017.06 1017.43 1017.72 1017.81 1018.10 1018.15 1017.84 1017.96 1018.56 1018.93 1019.31 1019.45 1019.65 1019.72 1019.87 1019.93 1019.95 1020.09 1020.54 1020.72 1021.01 1021.26 1021.43 1021.59 1021.75 1022.02 1022.00 1021.99 1021.87 1021.91 1021.77 1021.65 1021.65 1021.89 1021.63 1021.94 1022.44 1022.62 1022.63 1022.89
1016.30 1016.75 1017.66 1017.82 1018.29 1018.05 1018.36 1018.80 1018.60 1018.51 1018.65 1018.80 1019.28 1019.68 1019.96 1020.20 1020.60 1021.13 1021.52 1021.26 1021.62 1021.51 1021.27 1021.24 1021.27 1021.39 1021.67 1021.96 1022.15 1022.33 1022.37 1022.53 1022.56 1022.61 1022.27 1022.35 1022.29 1022.75 1022.70 1022.93 1023.16 1023.18 1023.40
1017.39 1017.92 1018.17 1018.31 1018.68 1018.58 1018.88 1019.38 1019.52 1019.17 1019.29 1019.51 1019.78 1020.22 1020.38 1020.66 1021.17 1021.66 1021.98 1022.14 1022.33 1022.41 1022.05 1021.84 1021.66 1021.85 1021.88 1022.14 1022.27 1022.69 1022.99 1022.77 1022.57 1022.63 1022.42 1022.67 1022.86 1022.95 1023.37 1023.62 1023.89 1024.19 1024.13
Wind_Speed
12 11 10 8 7 6 6 6 7 6 7 3 3 2 3 2 1 0 3 4 3 3 3 1 2 1 3 3 3 2 3 3 2 2 3 2 2 2 3 3 2 3 4
10 11 12 11 9 8 7 6 7 7 6 4 3 3 3 2 2 2 2 4 3 3 2 2 3 1 2 1 3 3 1 2 4 2 2 3 3 3 4 4 3 3 3
15 14 13 13 10 11 10 8 8 8 6 5 4 3 4 3 2 1 1 2 3 3 4 4 3 2 1 1 2 3 3 2 3 5 3 1 1 2 3 4 4 3 2
15 16 14 13 12 12 8 7 7 7 5 6 5 6 4 4 3 3 3 3 2 4 4 3 4 2 2 2 1 1 2 2 1 1 4 3 1 2 2 1 2 3 3
19 18 18 16 13 10 10 9 7 6 5 6 6 5 4 2 1 2 3 3 2 2 3 4 4 4 2 1 0 2 3 2 2 1 1 1 2 1 2 2 4 2 3
18 18 16 11 10 7 8 8 9 6 6 6 6 7 8 6 4 3 3 2 1 2 2 4 4 2 2 1 1 1 3 3 3 2 2 1 2 1 2 2 2 3 4
15 14 14 13 11 12 11 9 9 8 7 6 6 6 7 6 6 5 4 4 2 2 4 3 4 3 3 3 2 2 2 2 2 2 1 2 2 2 1 1 1 1 2
14 15 17 15 14 14 13 12 11 10 9 8 7 5 5 3 4 4 4 3 3 3 3 4 4 5 4 3 3 1 1 2 2 3 2 2 2 2 2 2 2 1 2
13 15 13 13 13 13 14 15 13 9 8 7 5 5 5 5 5 5 3 3 3 2 4 4 4 4 3 4 3 2 2 2 2 3 1 1 2 3 2 2 2 3 1
13 15 14 13 11 12 13 11 12 14 10 8 6 5 6 5 4 4 4 4 4 4 4 4 4 4 3 4 4 3 3 3 2 2 3 2 1 2 2 3 2 2 3
18 16 16 14 13 9 10 11 10 11 8 8 7 6 5 4 4 4 3 4 3 4 4 5 4 3 4 4 4 4 4 4 3 3 4 5 3 3 3 3 3 3 3
16 14 13 11 10 11 10 10 9 10 10 8 6 6 6 6 4 1 2 2 4 3 4 4 5 5 6 4 5 5 6 6 5 5 5 5 4 5 4 3 5 4 4
15 11 12 13 9 9 9 9 10 10 9 9 8 6 6 7 6 3 2 2 3 5 3 3 4 5 5 5 4 4 4 5 6 6 5 5 5 4 3 4 4 3 2
11 9 10 11 9 7 8 8 8 8 8 8 9 9 7 6 5 2 3 1 2 5 5 5 5 4 3 3 2 3 4 5 6 6 6 6 6 5 4 4 4 3 2
12 10 9 9 10 11 8 7 5 4 5 8 10 10 7 6 5 4 3 3 3 4 3 3 4 3 3 1 2 3 3 4 6 4 4 3 1 5 3 1 2 3 3
9 7 6 9 9 7 7 5 6 7 5 4 7 6 5 5 4 3 5 5 5 5 4 3 2 3 2 2 4 4 3 3 3 5 3 1 4 4 5 4 1 4 3
6 7 3 5 7 8 9 9 6 5 6 6 5 6 7 7 5 5 6 7 7 5 4 3 3 2 3 6 5 7 2 1 0 1 2 3 3 6 4 6 7 9 9
6 5 5 5 5 2 5 8 8 7 5 6 7 8 8 7 6 6 7 6 5 5 3 3 3 2 2 9 5 5 2 5 4 3 5 5 5 4 5 2 4 5 5
6 6 6 4 3 4 3 6 5 5 6 6 6 6 7 8 8 9 8 5 5 5 4 3 4 3 3 9 5 4 5 2 6 3 5 4 5 4 6 1 3 4 5
7 6 7 4 6 5 3 5 6 6 5 4 2 4 5 4 6 5 4 1 6 6 5 5 4 6 4 11 10 5 4 5 4 3 4 9 4 1 2 3 3 3 2
9 8 7 6 6 5 5 6 9 7 4 5 6 5 5 7 7 5 3 5 6 7 6 6 4 5 5 6 10 9 3 2 2 2 1 2 8 4 1 3 2 2 5
9 8 8 7 5 5 7 8 10 6 6 7 10 9 9 5 4 4 3 5 7 6 5 5 3 3 4 6 7 8 7 2 1 1 1 2 8 6 5 4 7 10 7
3 6 8 8 6 7 7 9 5 6 7 9 10 8 8 5 6 5 3 5 5 5 4 3 2 2 2 1 5 7 7 7 2 0 1 0 7 9 11 11 10 8 5
4 5 6 8 8 7 8 6 4 5 8 8 8 6 4 4 5 5 4 3 3 3 4 4 3 2 2 1 1 2 3 5 4 3 4 8 9 10 8 7 7 6 5
5 7 4 5 5 5 6 4 4 5 7 7 6 6 5 5 5 5 4 3 4 3 2 2 1 3 3 1 3 3 2 3 3 3 3 3 3 5 6 6 6 6 5
4 5 4 5 4 5 5 4 3 5 6 5 4 3 3 3 3 3 2 7 6 4 7 4 1 1 4 6 5 4 3 2 2 2 3 3 4 5 4 5 5 5 6
Wind_Direction
186 171 178 179 157 152 156 173 155 155 143 140 146 118 163 143 172 239 163 172 225 210 162 133 105 25 53 5 2 73 51 24 15 54 36 49 21 304 312 304 327 316 302
167 175 177 179 182 172 173 183 167 169 162 154 151 142 145 137 124 172 184 163 204 186 145 177 154 172 76 27 43 62 91 31 21 105 80 21 345 337 15 17 341 333 326
177 182 177 185 182 186 182 192 174 181 172 147 116 86 77 67 107 159 194 123 165 189 157 164 162 181 167 105 47 76 101 120 44 51 120 117 204 313 348 9 17 357 315
185 180 180 186 186 197 175 183 178 180 178 162 146 153 160 154 197 171 172 167 171 170 179 158 146 190 189 138 49 31 86 106 94 60 61 53 142 163 315 328 329 345 336
181 188 188 188 190 178 177 182 176 173 177 183 167 150 157 154 141 145 176 182 232 205 191 170 171 183 161 150 191 119 89 77 110 108 146 99 42 57 139 286 333 310 269
190 190 187 173 180 172 169 176 177 188 181 185 177 167 173 170 163 183 197 207 236 278 299 187 181 185 161 193 222 56 90 101 103 115 109 124 174 169 101 108 254 279 310
182 181 172 179 180 175 178 176 183 194 192 183 183 188 192 182 185 186 193 189 204 224 234 224 185 193 195 200 255 250 167 157 169 161 144 145 153 146 142 123 100 318 301
176 182 183 182 188 186 179 180 184 197 192 187 187 197 206 190 200 198 197 208 205 221 214 225 212 198 191 191 190 259 242 161 175 166 186 175 165 174 171 162 142 342 313
175 181 180 190 187 186 188 181 183 195 187 193 175 184 195 193 202 213 203 218 184 222 248 232 209 211 194 196 179 209 240 199 217 221 225 243 174 187 191 176 176 156 284
179 182 189 190 189 195 189 183 182 190 192 178 179 187 198 209 201 191 213 205 210 192 200 235 225 207 218 210 197 216 220 201 210 212 203 222 242 213 185 188 195 206 173
180 184 195 191 185 187 187 186 179 175 178 187 178 173 185 201 192 223 223 207 202 206 192 197 205 213 248 231 206 218 230 212 225 220 213 228 234 240 223 201 189 195 191
190 171 180 164 168 186 187 190 181 184 179 174 177 182 162 167 172 184 359 278 238 208 232 207 188 189 228 236 228 216 206 212 225 232 221 230 213 231 238 222 217 214 204
179 151 162 172 172 190 192 188 184 182 168 163 161 165 171 155 151 128 26 355 289 262 222 218 221 223 223 215 214 226 237 231 229 231 221 225 203 218 220 228 231 239 226
155 155 160 168 155 165 176 178 179 168 166 170 167 172 169 160 152 77 19 350 270 266 269 223 221 221 212 205 214 224 232 244 247 240 239 237 225 210 197 219 247 254 240
158 165 163 161 171 175 167 151 160 172 193 190 176 175 173 152 154 149 246 256 229 235 236 245 224 176 190 174 250 247 249 246 252 245 232 239 319 69 96 214 210 217 210
192 179 161 170 171 181 153 149 173 163 170 182 176 162 145 153 205 177 191 214 225 236 216 200 158 209 231 338 277 247 248 265 258 250 209 106 16 347 62 81 255 252 242
77 79 88 125 163 165 167 176 173 152 180 178 160 148 158 169 191 206 190 212 197 196 203 179 145 166 291 321 277 242 213 250 32 294 157 89 29 19 349 81 81 67 58
85 74 77 88 65 81 116 136 151 164 168 167 169 169 177 173 178 196 197 196 179 169 152 155 119 123 9 338 302 186 129 111 64 59 105 120 84 16 318 188 94 74 57
49 58 70 68 89 84 137 149 145 161 164 191 180 186 185 177 186 197 189 179 148 131 142 134 99 93 22 1 25 68 85 61 77 71 87 109 106 32 338 102 112 79 61
71 58 43 45 58 33 264 171 155 165 167 125 196 205 198 152 131 139 142 234 123 116 121 103 85 69 49 14 16 70 104 106 115 98 79 63 44 13 354 130 134 122 77
96 84 65 44 15 33 62 78 89 70 87 107 84 58 53 117 134 141 160 141 112 119 121 111 86 78 53 39 36 36 79 110 141 115 74 27 359 342 11 75 115 103 121
99 94 89 66 26 33 78 76 67 57 68 81 90 81 65 333 88 114 91 128 137 132 127 120 109 78 61 46 47 54 46 56 109 61 47 15 10 60 72 62 88 94 91
78 97 92 80 50 48 59 75 48 65 66 72 67 76 72 40 31 58 86 108 124 133 129 138 140 143 117 61 49 44 43 46 91 80 305 160 87 86 76 72 76 76 84
117 78 92 90 79 58 67 69 71 81 82 84 87 93 84 61 46 24 38 51 91 126 143 147 172 175 184 165 42 44 28 26 22 31 123 112 92 88 96 79 67 79 79
70 75 87 91 107 112 93 79 75 76 76 78 81 82 83 79 76 60 12 51 38 358 119 124 192 170 195 184 102 61 46 37 33 324 102 101 91 93 93 93 90 90 91
89 94 75 102 104 80 81 84 68 94 104 90 78 78 84 79 91 108 97 59 77 58 53 53 34 107 71 112 101 86 82 50 24 164 139 140 132 120 121 112 95 72 81